Location: *
(60.1759°S, 155.0663°W)
Time: 12:45:44
(UTC+00:00)

CZ-4B R/B - Pass Details

Date: 17 September 2019
Orbit: 489 x 651 km, 97.8° (Epoch: 15 October)

Event Time Altitude Azimuth Distance (km) Brightness Sun altitude
Exits shadow 13:54:37 20° 3° (N) 1,356 4.5 -18.6°
Maximum altitude 13:57:21 65° 284° (WNW) 622 2.8 -18.3°
Drops below altitude 10° 14:01:16 10° 201° (SSW) 1,821 5.6 -17.9°
Sets 14:03:22 0° 198° (SSW) 2,696 6.5 -17.7°
